Find OneWeb SL0186

NORAD ID: 48229 Int'l Des: 2021-031 Owner: ONEWEBN Country: UK Constellation: oneweb operational
LEOCIRCULARPOLARONEWEB_TYPE

Live Position

Loading 3D Globe...

About OneWeb SL0186

Description loading...

Upcoming Passes

Passes for default location (London). Set your location on the main map for personalized predictions.

Altitude History

Loading altitude history...

Two-Line Element Set

1 48229U 21031V 26125.03447176 -.00000129 00000-0 -38240-3 0 9994
2 48229 87.8932 298.3045 0001637 94.6805 265.4511 13.14503820242711
Epoch: May 5, 2026 • Age: 9 hours

Current Status

Altitude 1209.8 km
Velocity 7.25 km/s
Sub-Earth Point 35.04°N, 75.68°W
Launch Date Apr 25, 2021
Age 5 years
Type internet

Technical Details

Classification Payload
Mass 148.00 kg
Dry Mass 140.00 kg
Total Mass 148.00 kg
Length 1.30 m
Diameter 1.00 m
Span 5.00 m
Shape Trapezoid+2 pan
Manufacturer ONEWUS
Bus Type ARROW
Phase Status In Orbit
Owner/State ONEWEBN/UK

Most Searched